LiveATC.Net - Listen to live air traffic control over the Internet!


ICAO: CYYB  IATA: YYB   Airport: North Bay Airport
City: North Bay   State/Province: Ontario
Country: Canada   Continent: North America
CYYB METAR Weather: CYYB 150400Z AUTO 24006KT 9SM CLR 10/01 A3016 RMK SLP220
CYYB Flight Activity (FlightAware)

CYYB RDO/CTAF
Feed Status: UP   Listeners: 0
Listen in your browser - HTML5 player (in browser, HTML5)
Click here to listen with your own player (launches your MP3 player)
Archive Access: CYYB RDO/CTAF
FacilityFrequency
North Bay RDO/CTAF118.300

CYYB Toronto Center
Feed Status: UP   Listeners: 0
Listen in your browser - HTML5 player (in browser, HTML5)
Click here to listen with your own player (launches your MP3 player)
Archive Access: CYYB Toronto Center
FacilityFrequency
Toronto Center127.250

NOTICE

Unauthorized use prohibited. See LiveATC.net Terms of Service


Airport/ARTCC Code
Frequency Search
(e.g., 124.400, 128.75)
Site-wide search
 


Browse Feeds
Top 50 Feeds
HF Oceanic Feeds
Coverage Map
Bad Weather Areas

LiveATC FAQ
Offer LiveATC feed
Contact LiveATC.net
Press Inquiries

LiveATC on iPhone
LiveATC on Android

Windows Phone
Windows 8/10

LiveATC Mobile
(Mobile browser)

ATC Audio Archives
Interesting Recordings

LiveATC Forums


Home Page
About LiveATC.net
Make a Donation
Terms of Use
Privacy Policy

Canadian Air Freqs

AIRMETs/SIGMETs

FAA Airport Status
NAS Status
Arrival Demand


Server Software By:
Icecast.org
Liquidsoap